Location: *
(51.1248°S, 108.4023°W)
Time: 04:51:53
(UTC+00:00)

Cosmos 1939 Rocket - Pass Details

Date: 15 June 2021
Orbit: 533 x 582 km, 97.4° (Epoch: 31 July)

Event Time Altitude Azimuth Distance (km) Brightness Sun altitude
Rises 12:20:17 0° 28° (NNE) 2,808 6.9 -26.3°
Reaches altitude 10° 12:22:27 10° 32° (NNE) 1,918 6.0 -25.9°
Maximum altitude 12:26:31 54° 108° (ESE) 726 3.6 -25.3°
Enters shadow 12:27:43 39° 161° (SSE) 895 3.9 -25.1°
